Meadow Lake, CO

9:33 AM MDT on June 22, 2017 (GMT -0600)
Meadow Lake

Weather History for KFLY - October, 2011

Change the Weather History Date:

Friday, October 21, 2011

  Actual Average (KCOS) Record (KCOS)
Temperature  
Mean Temperature 51 °F -  
Max Temperature 68 °F 62 °F 84 °F (2003)
Min Temperature 34 °F 35 °F 11 °F (1911)
Degree Days  
Heating Degree Days 14    
Growing Degree Days 1 (Base 50)    
Moisture  
Dew Point 20 °F    
Average Humidity 34    
Maximum Humidity 63    
Minimum Humidity 14    
Precipitation  
Precipitation 0.00 in - - ()
Sea Level Pressure  
Sea Level Pressure 30.23 in    
Wind  
Wind Speed 5 mph (WSW)    
Max Wind Speed 12 mph    
Max Gust Speed 17 mph    
Visibility 10 miles    
Events      
Averages and records for this station are not official NWS values.
T = Trace of Precipitation, MM = Missing Value Source: NWS Daily Summary

Daily Weather History Graph

Daily Weather History Graph

Search for Another Location

Airport or City:

Trip Planner

Search our weather history database for the weather conditions in past years. The results will help you decide how hot, cold, wet, or windy it might be!

Date:

Astronomy

Oct. 21, 2011 Rise Set
Actual Time 7:13 AM MDT 6:11 PM MDT
Civil Twilight 6:46 AM MDT 6:38 PM MDT
Nautical Twilight 6:15 AM MDT 7:09 PM MDT
Astronomical Twilight 5:44 AM MDT 7:40 PM MDT
Moon 1:09 AM MDT (10/21) 2:54 PM MDT (10/21)
Length of Visible Light 11h 52m
Length of Day
10h 57m
Waning Crescent, 33% of the Moon is Illuminated
Oct 21
Waning Crescent
Oct 26
New
Nov 2
First Quarter
Nov 10
Full
Nov 18
Last Quarter

Hourly Weather History & Observations

Time (MDT) Temp. Windchill Dew Point Humidity Pressure Visibility Wind Dir Wind Speed Gust Speed Precip Events Conditions
12:25 AM 39.4 °F 34.5 °F 21.6 °F 49% 30.23 in 10.0 mi WNW 6.9 mph - N/A   Clear
12:45 AM 42.1 °F 39.2 °F 21.0 °F 43% 30.23 in 10.0 mi WSW 4.6 mph - N/A   Clear
1:26 AM 38.3 °F 34.8 °F 21.9 °F 52% 30.23 in 10.0 mi WSW 4.6 mph - N/A   Clear
1:46 AM 36.3 °F 32.5 °F 22.3 °F 57% 30.23 in 10.0 mi West 4.6 mph - N/A   Clear
2:06 AM 42.4 °F 39.6 °F 21.2 °F 43% 30.23 in 10.0 mi SW 4.6 mph - N/A   Clear
2:26 AM 44.2 °F 40.3 °F 21.6 °F 41% 30.22 in 10.0 mi SW 6.9 mph - N/A   Clear
2:46 AM 38.1 °F 32.3 °F 22.1 °F 53% 30.23 in 10.0 mi West 8.1 mph - N/A   Clear
3:06 AM 37.6 °F 34.0 °F 23.0 °F 56% 30.22 in 10.0 mi WSW 4.6 mph - N/A   Clear
3:26 AM 37.6 °F 34.0 °F 22.6 °F 55% 30.22 in 10.0 mi West 4.6 mph - N/A   Clear
3:46 AM 36.9 °F 29.1 °F 22.6 °F 56% 30.22 in 10.0 mi West 11.5 mph - N/A   Clear
4:06 AM 36.1 °F 31.4 °F 23.0 °F 59% 30.21 in 10.0 mi West 5.8 mph - N/A   Clear
4:26 AM 38.3 °F 30.9 °F 22.5 °F 53% 30.22 in 10.0 mi West 11.5 mph - N/A   Clear
4:46 AM 37.8 °F 31.3 °F 22.6 °F 54% 30.22 in 10.0 mi WNW 9.2 mph - N/A   Clear
5:06 AM 35.8 °F 28.8 °F 23.2 °F 60% 30.22 in 10.0 mi WNW 9.2 mph - N/A   Clear
5:46 AM 34.9 °F 28.3 °F 23.0 °F 62% 30.23 in 10.0 mi WNW 8.1 mph - N/A   Clear
6:06 AM 34.3 °F 27.7 °F 23.0 °F 63% 30.23 in 10.0 mi WNW 8.1 mph - N/A   Clear
6:26 AM 35.1 °F 28.6 °F 23.0 °F 61% 30.24 in 10.0 mi WNW 8.1 mph - N/A   Clear
6:46 AM 37.0 °F 32.4 °F 22.8 °F 56% 30.24 in 10.0 mi NW 5.8 mph - N/A   Clear
7:06 AM 36.7 °F 32.0 °F 22.5 °F 56% 30.24 in 10.0 mi NW 5.8 mph - N/A   Clear
7:26 AM 37.8 °F 33.3 °F 22.5 °F 54% 30.25 in 10.0 mi NW 5.8 mph - N/A   Clear
7:46 AM 40.1 °F 36.1 °F 22.8 °F 50% 30.26 in 10.0 mi NW 5.8 mph - N/A   Clear
8:05 AM 43.9 °F 42.3 °F 24.4 °F 46% 30.26 in 10.0 mi NNW 3.5 mph - N/A   Clear
8:25 AM 48.7 °F - 24.8 °F 39% 30.27 in 10.0 mi NNW 4.6 mph - N/A   Clear
8:45 AM 54.7 °F - 22.5 °F 29% 30.27 in 10.0 mi NNW 4.6 mph - N/A   Clear
9:05 AM 57.4 °F - 22.3 °F 26% 30.28 in 10.0 mi North 3.5 mph - N/A   Clear
9:25 AM 58.6 °F - 19.9 °F 22% 30.28 in 10.0 mi Calm Calm - N/A   Clear
9:45 AM 59.2 °F - 19.8 °F 22% 30.27 in 10.0 mi Calm Calm - N/A   Clear
10:05 AM 60.3 °F - 20.5 °F 22% 30.28 in 10.0 mi Calm Calm - N/A   Clear
10:25 AM 61.7 °F - 19.6 °F 20% 30.26 in 10.0 mi Calm Calm - N/A   Clear
10:45 AM 62.8 °F - 19.0 °F 19% 30.26 in 10.0 mi Calm Calm - N/A   Clear
11:05 AM 63.0 °F - 19.0 °F 18% 30.26 in 10.0 mi Calm Calm - N/A   Clear
11:25 AM 63.5 °F - 19.2 °F 18% 30.26 in 10.0 mi Calm Calm - N/A   Clear
11:45 AM 64.6 °F - 18.0 °F 17% 30.26 in 10.0 mi Calm Calm - N/A   Clear
12:05 PM 65.1 °F - 17.8 °F 16% 30.26 in 10.0 mi East 3.5 mph - N/A   Clear
12:25 PM 66.0 °F - 17.8 °F 16% 30.25 in 10.0 mi ESE 4.6 mph - N/A   Clear
12:45 PM 66.2 °F - 17.4 °F 15% 30.24 in 10.0 mi Calm Calm - N/A   Clear
1:05 PM 66.7 °F - 18.1 °F 16% 30.23 in 10.0 mi SE 4.6 mph - N/A   Clear
1:25 PM 68.2 °F - 17.4 °F 14% 30.22 in 10.0 mi Calm Calm - N/A   Clear
1:45 PM 68.0 °F - 17.6 °F 15% 30.22 in 10.0 mi SSE 5.8 mph - N/A   Clear
2:05 PM 68.2 °F - 17.1 °F 14% 30.20 in 10.0 mi South 5.8 mph 17.3 mph N/A   Clear
2:25 PM 67.8 °F - 16.3 °F 14% 30.20 in 10.0 mi SE 3.5 mph - N/A   Clear
2:45 PM 68.0 °F - 16.3 °F 14% 30.20 in 10.0 mi SSE 3.5 mph - N/A   Clear
3:05 PM 68.0 °F - 16.3 °F 14% 30.20 in 10.0 mi NE 3.5 mph - N/A   Clear
3:44 PM 67.3 °F - 16.5 °F 14% 30.20 in 10.0 mi SSE 4.6 mph - N/A   Clear
4:05 PM 66.9 °F - 18.0 °F 15% 30.20 in 10.0 mi SSE 6.9 mph - N/A   Clear
4:25 PM 66.4 °F - 18.7 °F 16% 30.19 in 10.0 mi SE 9.2 mph - N/A   Clear
4:45 PM 64.4 °F - 18.7 °F 17% 30.20 in 10.0 mi SSE 9.2 mph - N/A   Clear
5:05 PM 64.0 °F - 18.9 °F 18% 30.20 in 10.0 mi SE 9.2 mph 16.1 mph N/A   Clear
5:25 PM 62.2 °F - 19.2 °F 19% 30.20 in 10.0 mi SSE 8.1 mph - N/A   Clear
5:45 PM 58.8 °F - 20.1 °F 22% 30.21 in 10.0 mi SE 3.5 mph - N/A   Clear
6:05 PM 55.9 °F - 20.3 °F 25% 30.22 in 10.0 mi Calm Calm - N/A   Clear
6:06 PM 55.6 °F - 20.3 °F 25% 30.22 in 10.0 mi Calm Calm - N/A   Clear